CAPE
41 21 18 37 64 18 26 7 18 17 0 0 1 0 0 0 0 0 39 128 226 232 223 206 231 197 184 179 199 209 196 202 216 249 279 291 190 0 0 0 0 0 0 0
60 12 24 43 58 19 21 34 15 0 0 0 4 0 0 0 0 0 0 99 232 290 189 132 180 147 126 87 135 113 100 109 126 175 231 126 0 0 0 0 0 0 0 0
60 14 17 29 14 45 12 16 2 3 0 0 0 0 0 0 0 0 0 0 219 347 81 1 0 0 0 0 0 0 0 0 0 0 1 0 0 0 0 0 0 0 0 0
46 6 8 14 2 12 26 9 8 2 1 10 1 14 4 6 0 0 0 0 162 43 0 0 0 0 0 0 0 0 0 0 0 0 0 0 0 0 0 0 0 0 0 0
18 0 7 44 9 9 6 25 18 24 21 0 5 18 0 3 9 0 0 0 0 0 0 0 0 0 0 0 0 0 0 0 0 0 0 0 0 0 0 0 0 0 0 0
10 0 0 2 15 29 36 24 1 6 15 19 2 5 5 0 0 1 0 0 0 0 0 0 0 0 0 0 0 0 0 0 0 0 0 0 0 0 0 0 0 0 0 0
2 5 13 23 52 92 85 59 35 13 9 10 0 6 0 0 0 0 0 0 0 0 0 0 0 0 0 0 0 0 0 0 0 0 0 0 0 0 0 0 0 0 0 0
15 10 49 55 17 43 45 17 18 3 5 1 0 2 1 0 0 0 0 0 0 0 0 0 0 0 0 0 0 0 0 0 0 0 0 0 0 0 0 0 0 0 0 0
39 27 2 2 21 21 13 7 0 0 0 1 1 0 0 0 0 0 0 0 0 0 0 0 0 0 0 1 0 0 0 0 0 0 0 0 0 0 0 0 0 0 0 0
25 35 0 1 5 1 5 0 6 3 14 9 2 1 0 0 0 0 0 0 0 0 1 2 1 1 1 1 1 1 0 1 0 0 0 0 0 0 0 0 0 0 0 0
15 5 13 2 8 14 14 10 2 6 2 12 6 0 0 0 0 0 0 1 3 5 2 1 1 0 0 0 0 0 0 0 0 0 0 0 0 0 0 0 0 0 0 0
6 4 4 9 3 0 1 7 2 1 7 0 0 0 0 0 0 0 0 4 4 1 1 1 0 0 0 0 0 0 0 0 0 0 0 0 0 0 0 0 0 0 0 0
3 10 11 5 7 3 8 2 0 5 0 0 0 0 0 0 0 0 0 4 1 1 0 0 0 0 0 0 0 0 0 0 0 0 0 0 0 0 0 0 0 0 0 0
1 5 11 4 0 0 5 6 3 6 12 3 0 0 0 0 0 0 1 3 1 1 0 0 0 0 0 0 0 0 0 0 0 0 0 0 0 0 0 0 0 0 0 0
6 6 0 0 0 3 4 3 4 9 0 3 0 0 0 0 0 0 3 1 0 0 0 0 0 0 0 0 0 0 0 0 0 0 0 0 0 0 0 0 0 0 0 0
14 20 0 0 0 0 0 4 5 5 1 9 0 0 0 0 0 0 1 0 0 0 0 0 0 0 0 0 0 0 0 0 0 0 0 0 0 0 0 0 0 0 0 0
14 4 1 17 0 0 0 0 0 0 0 1 0 0 0 0 0 0 0 0 0 0 0 0 0 0 0 0 0 0 0 0 0 0 0 0 0 0 0 0 0 0 0 0
1 10 3 1 0 2 0 0 0 0 0 0 0 0 0 0 0 0 0 0 0 0 0 0 0 0 0 0 0 0 0 0 0 0 0 0 0 0 0 0 0 0 0 0
0 10 10 19 6 0 0 0 0 0 0 0 0 0 0 0 0 0 0 0 0 0 0 0 0 0 0 0 0 0 0 0 0 0 0 0 0 0 0 0 0 0 0 0
2 0 36 2 12 2 0 0 0 0 0 0 0 0 0 0 0 0 0 0 0 0 0 0 0 0 0 0 0 0 0 0 0 0 0 0 0 0 0 0 0 0 0 0
8 12 23 20 27 28 0 0 0 0 0 0 0 0 0 0 0 0 0 0 0 0 0 0 0 0 0 0 0 0 0 0 0 0 0 0 0 0 0 0 0 0 0 0
1 8 14 2 8 1 0 0 0 0 0 0 0 0 0 0 0 0 0 0 0 0 0 0 0 0 0 0 0 0 0 0 0 0 0 0 0 0 0 0 0 0 0 0
0 0 1 0 1 0 0 0 0 0 0 0 0 0 0 0 0 0 0 0 0 0 0 0 0 0 0 0 0 0 0 0 0 0 0 0 0 0 0 0 0 0 0 0
0 0 0 0 0 0 0 0 0 0 0 0 0 0 0 0 0 0 0 0 0 0 0 0 0 0 0 0 0 0 0 0 0 0 0 0 0 0 0 0 0 0 0 0
0 0 0 0 0 0 0 0 0 0 0 0 0 0 0 0 0 0 0 0 0 0 0 0 0 0 0 0 0 0 0 0 0 0 0 0 0 0 0 0 0 0 0 0
0 0 0 0 0 0 0 0 0 0 0 0 0 0 0 0 0 0 0 0 0 0 0 0 0 0 0 0 0 0 0 0 0 0 0 0 0 0 0 0 0 0 0 0
CIN
0 0 0 0 0 -15 -2 -5 -2 -11 -1 0 0 0 0 0 0 0 -26 -20 -16 -17 -12 -15 -8 -7 -8 -8 -1 0 0 0 0 0 0 0 0 0 0 0 0 0 0 0
0 -2 -1 -6 -1 -4 -4 -4 -1 0 0 0 0 0 0 0 0 0 0 -5 -5 -4 -46 -66 -28 -23 -10 -20 -8 -3 -5 -6 -2 -1 -2 -10 0 0 0 0 0 0 0 0
0 -1 -1 -7 -1 0 -9 -4 -5 -4 0 0 -1 0 0 0 0 0 0 0 -5 0 -77 0 0 0 0 0 0 0 0 0 0 -2 -20 0 0 0 0 0 0 0 0 0
0 -8 -3 -2 -1 -4 -1 -11 -3 -4 0 0 -1 -3 -33 -84 0 0 0 0 -13 -85 0 0 0 0 0 0 0 0 0 0 0 0 0 0 0 0 0 0 0 0 0 0
0 0 -1 0 0 -3 0 -1 -3 -2 -1 0 0 0 0 -13 -18 0 0 0 0 0 0 0 0 0 0 0 0 0 0 0 0 0 0 0 0 0 0 0 0 0 0 0
-1 0 0 0 -1 -1 -5 -2 -10 -3 -1 0 0 0 0 0 -34 -8 0 0 0 0 0 0 0 0 0 0 0 0 0 0 0 0 0 0 0 0 0 0 0 0 0 0
0 -1 -4 -19 -2 -4 -1 -1 0 -2 -1 0 0 0 -1 0 0 0 0 0 0 0 0 0 0 0 0 0 0 0 0 0 0 0 0 0 0 0 0 0 0 0 0 0
0 0 0 -4 -1 -1 0 0 -1 -1 0 -1 0 0 0 0 0 0 0 0 0 0 0 0 0 0 0 0 0 0 0 0 0 0 0 0 0 0 0 0 0 0 0 0
0 0 -4 -1 -16 -5 0 0 0 0 0 0 0 0 0 0 0 0 0 0 0 0 0 0 0 0 0 0 0 0 0 0 0 0 0 0 0 0 0 0 0 0 0 0
-1 0 0 -1 -6 -2 -1 0 -5 0 0 -1 -2 0 0 0 0 0 0 0 0 0 0 0 0 0 0 0 0 0 0 0 0 0 0 0 0 0 0 0 0 0 0 0
0 0 0 0 -1 0 -1 -1 0 0 -6 -2 -3 0 0 0 0 0 0 0 0 0 0 0 0 0 0 0 0 0 0 0 0 0 0 0 0 0 0 0 0 0 0 0
0 0 0 0 0 0 0 0 0 0 -1 0 0 0 0 0 0 0 0 0 0 0 0 0 0 0 0 0 0 0 0 0 0 0 0 0 0 0 0 0 0 0 0 0
-2 -4 0 0 0 0 0 0 0 -7 0 0 0 0 0 0 0 0 -1 0 0 0 0 0 0 0 0 0 0 0 0 0 0 0 0 0 0 0 0 0 0 0 0 0
-1 -1 0 -2 0 0 0 0 0 0 0 -1 0 0 0 0 0 0 -1 0 0 0 0 0 0 0 0 0 0 0 0 0 0 0 0 0 0 0 0 0 0 0 0 0
0 -1 0 0 0 0 0 0 0 0 0 0 0 0 0 0 0 0 0 0 0 0 0 0 0 0 0 0 0 0 0 0 0 0 0 0 0 0 0 0 0 0 0 0
0 -7 0 0 0 0 0 0 0 0 0 0 0 0 0 0 0 -1 0 0 0 0 0 0 0 0 0 0 0 0 0 0 0 0 0 0 0 0 0 0 0 0 0 0
0 -1 0 0 0 0 0 0 0 0 0 0 0 0 0 0 0 0 0 0 0 0 0 0 0 0 0 0 0 0 0 0 0 0 0 0 0 0 0 0 0 0 0 0
0 -1 0 0 0 0 0 0 0 0 0 0 0 0 0 0 0 0 0 0 0 0 0 0 0 0 0 0 0 0 0 0 0 0 0 0 0 0 0 0 0 0 0 0
0 -2 -12 0 0 0 0 0 0 0 0 0 0 0 0 0 0 0 0 0 0 0 0 0 0 0 0 0 0 0 0 0 0 0 0 0 0 0 0 0 0 0 0 0
0 0 0 0 0 0 0 0 0 0 0 0 0 0 0 0 0 0 0 0 0 0 0 0 0 0 0 0 0 0 0 0 0 0 0 0 0 0 0 0 0 0 0 0
0 0 0 0 0 -11 0 0 0 0 0 0 0 0 0 0 0 0 0 0 0 0 0 0 0 0 0 0 0 0 0 0 0 0 0 0 0 0 0 0 0 0 0 0
0 0 0 0 0 0 0 0 0 0 0 0 0 0 0 0 0 0 0 0 0 0 0 0 0 0 0 0 0 0 0 0 0 0 0 0 0 0 0 0 0 0 0 0
0 0 0 0 0 0 0 0 0 0 0 0 0 0 0 0 0 0 0 0 0 0 0 0 0 0 0 0 0 0 0 0 0 0 0 0 0 0 0 0 0 0 0 0
0 0 0 0 0 0 0 0 0 0 0 0 0 0 0 0 0 0 0 0 0 0 0 0 0 0 0 0 0 0 0 0 0 0 0 0 0 0 0 0 0 0 0 0
0 0 0 0 0 0 0 0 0 0 0 0 0 0 0 0 0 0 0 0 0 0 0 0 0 0 0 0 0 0 0 0 0 0 0 0 0 0 0 0 0 0 0 0
0 0 0 0 0 0 0 0 0 0 0 0 0 0 0 0 0 0 0 0 0 0 0 0 0 0 0 0 0 0 0 0 0 0 0 0 0 0 0 0 0 0 0 0
Wind_Speed
3 5 6 11 14 2 5 10 11 5 2 9 19 17 17 15 8 10 6 7 9 9 9 10 10 10 7 7 6 6 6 6 5 5 5 5 2 7 7 7 11 10 9 9
5 3 15 9 15 6 5 10 5 2 1 2 19 21 15 14 10 10 6 6 9 11 9 6 6 6 7 5 4 4 3 3 2 1 3 5 6 7 5 6 9 10 10 8
12 6 3 7 5 9 4 3 5 3 6 4 5 6 14 14 14 5 4 3 7 12 10 8 8 9 10 9 8 8 8 8 6 5 6 8 7 4 5 5 8 9 9 8
10 5 7 4 2 0 6 6 1 6 3 3 5 3 14 16 15 9 6 5 7 13 11 10 11 11 10 10 11 13 12 12 11 9 8 11 7 6 5 7 5 8 9 11
5 6 7 10 9 6 1 4 7 5 6 3 6 6 8 10 18 16 8 7 9 9 11 11 12 12 12 11 11 12 13 14 13 12 9 8 10 7 6 6 7 8 8 12
8 1 6 10 2 14 13 9 8 3 2 4 12 8 6 7 10 9 12 8 9 11 12 13 14 14 13 12 11 12 15 15 15 14 15 13 13 10 8 9 7 7 7 8
10 7 0 3 5 3 11 10 3 1 4 5 3 11 10 3 1 2 15 12 11 12 12 12 14 14 11 15 11 11 13 14 14 15 14 12 12 11 12 9 8 9 6 6
12 9 10 7 6 5 13 11 6 7 6 4 3 9 3 4 4 10 14 13 13 14 13 14 13 14 12 12 13 10 11 12 13 13 12 11 11 6 6 6 5 5 5 5
8 4 3 4 3 2 6 4 6 1 1 2 6 4 4 7 10 13 16 16 16 17 15 14 12 11 9 9 9 10 9 11 9 8 8 8 7 7 8 8 7 5 5 5
3 5 3 4 0 1 3 13 3 1 5 7 7 6 6 10 12 14 15 17 17 16 15 12 10 9 8 8 8 7 8 9 8 8 6 7 7 7 6 6 7 7 6 8
4 3 4 3 4 10 4 3 3 2 3 3 1 2 4 9 14 16 17 17 16 14 12 10 9 8 8 7 7 7 9 10 9 8 8 8 7 6 7 6 7 6 7 9
2 3 3 2 2 3 5 9 10 6 5 3 2 2 2 1 14 16 18 14 12 11 11 10 9 9 8 8 8 9 9 9 9 8 7 7 6 6 6 7 9 9 9 8
7 3 5 3 2 1 5 4 3 3 3 5 3 0 2 3 11 16 17 14 12 11 10 10 10 8 8 9 8 8 8 9 8 7 6 6 6 6 8 8 8 8 8 8
2 4 4 1 4 9 7 7 8 6 6 4 8 6 5 8 14 16 16 14 13 13 13 11 10 10 10 9 8 8 8 7 7 7 7 7 7 8 7 7 7 6 7 7
2 4 4 1 2 3 7 12 17 18 13 9 4 10 7 12 17 17 18 16 14 13 12 13 11 10 10 9 9 8 8 6 6 7 7 7 5 5 5 5 6 7 8 8
4 1 3 1 1 2 2 8 13 14 13 15 17 14 2 9 12 16 19 19 17 15 13 14 12 11 10 9 9 8 7 6 6 7 6 5 4 4 5 7 8 7 7 7
5 4 4 3 3 3 6 14 16 12 11 17 12 13 9 13 17 19 20 21 19 17 16 15 13 11 10 9 8 8 7 6 6 6 5 4 3 4 6 6 6 6 6 5
4 3 1 2 2 6 2 1 10 17 11 15 10 1 10 10 11 14 15 17 16 16 14 13 11 10 9 9 8 8 7 6 6 4 3 3 3 4 5 4 4 4 4 5
3 3 3 3 6 9 3 4 6 9 8 17 15 10 7 6 9 8 13 14 14 14 12 11 10 11 11 9 9 8 7 5 4 3 3 3 4 3 3 3 5 5 5 5
2 3 3 3 4 5 5 3 1 5 6 5 12 15 12 14 8 7 15 14 15 15 12 12 11 10 10 9 8 8 6 5 4 3 3 3 2 2 3 4 4 4 5 5
4 4 11 7 6 6 4 6 2 5 1 2 3 10 16 12 2 6 17 14 15 13 14 14 12 10 9 8 8 7 6 5 4 3 2 2 2 3 3 4 4 4 4 5
7 7 5 3 5 9 9 5 7 2 2 1 4 7 11 6 9 15 15 15 15 16 14 12 11 10 8 7 6 7 6 5 4 2 1 1 2 3 2 3 4 4 4 5
4 3 2 8 4 2 11 2 2 1 2 2 3 3 9 12 12 15 15 15 13 15 12 10 10 10 7 6 5 7 6 4 4 2 1 2 2 3 3 3 3 4 3 4
5 3 3 2 7 11 8 7 6 2 4 3 3 5 10 12 14 14 13 12 11 10 10 8 10 8 7 6 4 3 6 4 4 3 3 3 3 2 3 3 3 3 3 4
1 7 4 6 10 7 11 11 6 5 1 1 2 1 7 9 10 12 12 11 10 9 8 8 8 8 7 7 6 5 5 4 4 3 3 4 3 3 3 3 3 4 4 4
9 9 8 6 3 2 2 2 10 7 6 7 6 5 4 9 12 12 10 9 10 10 8 7 6 7 7 6 6 5 4 3 4 5 4 3 3 3 3 3 4 7 9 10
Wind_Direction
184 205 214 197 204 231 178 185 207 197 289 241 221 236 240 248 233 255 243 205 176 177 169 163 177 174 181 183 183 188 183 186 192 200 204 214 164 75 63 58 46 38 30 20
170 268 202 208 211 163 182 172 176 115 104 75 231 233 243 252 245 247 261 198 182 163 136 127 143 149 175 151 153 130 108 75 163 14 50 47 96 71 67 60 58 44 41 33
241 131 216 127 162 183 176 157 162 188 145 218 254 255 251 239 235 199 197 310 179 161 151 123 103 82 64 65 68 74 72 67 56 62 81 95 84 64 58 54 57 31 34 35
242 172 180 167 159 162 168 169 168 108 198 192 232 295 228 226 210 201 187 166 171 110 109 110 94 79 68 57 62 63 57 55 47 55 72 82 93 92 63 70 58 63 29 19
167 217 202 209 189 161 106 183 131 187 169 39 189 252 240 206 209 182 165 127 123 125 121 108 97 90 80 70 68 68 64 55 48 51 61 80 86 78 68 58 58 53 45 39
224 24 230 228 117 176 143 122 73 63 20 231 209 210 235 208 237 176 136 137 131 122 112 108 101 93 83 74 65 69 70 61 54 54 52 60 64 65 61 51 46 40 35 39
194 200 134 269 139 189 179 161 90 229 188 225 307 208 247 127 284 156 151 150 136 127 117 111 102 95 83 75 59 63 62 64 61 56 52 48 53 63 55 50 47 33 29 14
181 201 191 168 216 175 200 193 183 221 208 189 3 226 132 13 71 123 132 138 137 128 122 116 110 98 88 85 90 78 67 64 61 71 64 47 49 54 65 60 58 49 33 13
189 139 66 21 17 235 151 206 31 271 64 197 192 235 215 127 125 132 138 143 138 133 126 116 108 102 105 93 90 95 93 82 75 78 85 74 56 54 53 38 47 37 28 13
140 125 355 81 261 59 284 137 117 253 202 232 176 248 224 186 162 155 153 149 143 135 128 121 110 100 87 83 81 88 90 90 84 80 84 78 63 53 52 52 44 34 22 21
270 263 103 141 215 205 174 171 158 273 292 283 250 193 21 185 173 165 160 154 145 141 136 129 116 100 92 92 95 97 93 90 84 81 72 71 62 50 51 50 45 29 25 21
201 1 134 83 34 346 330 229 210 224 167 255 40 269 353 345 165 167 162 140 142 145 139 130 117 121 130 131 127 107 104 97 86 81 77 69 63 60 54 41 36 26 28 22
169 199 143 150 187 203 215 194 238 289 345 194 205 234 346 196 172 170 157 150 150 144 134 131 148 144 134 123 116 108 99 91 86 84 80 70 57 49 44 37 29 28 19 23
177 192 275 249 38 127 181 176 185 183 218 211 236 293 168 184 184 169 156 159 158 158 160 152 156 150 141 134 131 120 102 94 94 88 78 61 39 37 32 30 33 26 25 25
221 185 212 20 50 186 181 185 196 211 223 234 258 242 260 189 182 167 170 162 161 166 164 173 164 153 147 141 127 115 105 97 96 88 74 65 48 35 40 33 27 26 21 22
191 181 142 285 285 245 228 184 197 220 223 238 252 263 243 172 173 170 174 172 173 176 180 171 167 153 151 146 129 122 114 103 95 86 81 69 57 41 34 27 21 20 14 10
161 157 159 157 336 344 271 219 201 204 214 220 228 242 162 176 187 185 180 182 177 174 177 171 166 161 151 137 134 128 120 112 98 88 75 62 46 45 35 23 16 15 8 349
144 118 3 107 193 223 49 1 248 226 239 224 245 312 197 204 195 186 188 183 178 172 162 164 157 144 133 128 126 122 123 109 100 105 100 82 53 44 26 16 360 353 350 339
27 173 145 197 219 326 209 211 175 189 259 231 234 217 197 161 153 185 183 185 170 161 158 155 145 140 137 141 137 127 118 121 134 123 103 64 45 35 2 343 346 352 338 331
122 314 280 171 246 242 50 140 131 160 267 34 220 220 169 153 189 188 177 168 152 152 148 145 138 136 138 140 140 140 142 156 144 129 106 62 26 341 342 344 330 332 319 319
157 174 226 215 241 280 128 145 168 190 53 344 294 241 175 194 235 129 155 151 144 142 145 141 141 143 139 142 148 151 154 156 139 153 126 69 6 327 321 318 305 311 309 319
183 178 181 154 220 255 146 118 213 59 106 296 295 255 177 129 114 130 141 145 146 142 142 146 138 135 142 148 152 148 164 151 150 118 110 41 349 300 288 288 292 308 322 320
226 238 206 214 215 106 193 290 108 72 302 325 258 210 172 144 154 154 149 148 153 149 140 137 143 143 139 130 160 172 154 151 135 134 148 218 234 259 282 285 297 305 312 313
232 192 251 303 222 228 230 234 228 204 267 319 252 219 169 162 151 150 148 143 141 134 142 139 137 140 146 156 158 138 143 136 128 182 206 206 241 290 243 273 272 292 292 296
345 159 187 263 280 275 253 238 239 208 188 98 59 149 195 138 140 140 138 139 140 146 139 148 153 155 157 161 160 142 138 137 180 199 206 223 233 241 274 261 279 275 272 270
186 190 187 215 232 239 59 335 182 166 185 159 144 122 89 145 144 139 142 149 147 151 150 147 141 149 160 161 151 153 150 168 196 206 205 213 240 240 256 275 281 261 259 270